Location: Basses Si�yes
(44.0835°N, 6.2037°E)
Time: 10:10:00
(UTC+00:00)

Cosmos 1627 Rocket - Pass Details

Date: 27 February 2020
Orbit: 950 x 1005 km, 82.9° (Epoch: 04 April)

Event Time Altitude Azimuth Distance (km) Brightness Sun altitude
Rises 19:30:52 0° 353° (N) 3,667 7.8 -24.2°
Reaches altitude 10° 19:33:24 10° 355° (N) 2,709 7.0 -24.6°
Maximum altitude 19:39:36 76° 81° (E) 988 4.3 -25.7°
Enters shadow 19:41:02 54° 151° (SSE) 1,144 4.5 -25.9°
